FW8003 Weather Reports


time (UTC)temp
C
wind
direction
speed
KPH
gust
KPH
rain 1hr
cm
rain 24hr
cm
rain mn
cm
humidity
%
barometer
mb
20260505171532 26 217 3.2 12.9 0.00 0.00 0.00 83 1008.1
20260505171017 26 236 3.2 14.5 0.00 0.00 0.00 83 1008.1
20260505170516 26 182 4.8 14.5 0.00 0.00 0.00 83 1008.1
20260505170033 25 221 1.6 12.9 0.00 0.00 0.00 84 1008.1
20260505165515 25 233 3.2 16.1 0.00 0.00 0.00 84 1008.1
20260505165015 25 171 3.2 17.7 0.00 0.00 0.00 84 1008.2
20260505164532 25 234 3.2 17.7 0.00 0.00 0.00 85 1008.2
20260505164018 25 174 3.2 17.7 0.00 0.00 0.00 84 1008.3
20260505163519 25 241 4.8 17.7 0.00 0.00 0.00 84 1008.1
20260505163036 25 149 3.2 17.7 0.00 0.00 0.00 85 1008.3
20260505162516 25 148 3.2 12.9 0.00 0.00 0.00 84 1008.3
20260505162019 25 221 1.6 14.5 0.00 0.00 0.00 85 1008.3
20260505161534 25 209 1.6 14.5 0.00 0.00 0.00 85 1008.5
20260505161018 25 146 1.6 20.9 0.00 0.00 0.00 85 1008.5
20260505160518 25 223 3.2 20.9 0.00 0.00 0.00 84 1008.4
20260505153038 24 152 3.2 17.7 0.00 0.00 0.00 85 1008.1
20260505152515 24 168 4.8 12.9 0.00 0.00 0.00 86 1008.0
20260505152021 24 0 1.6 12.9 0.00 0.00 0.00 86 1007.9
20260505151537 23 0 3.2 12.9 0.00 0.00 0.00 86 1008.1
20260505151021 23 243 3.2 8.0 0.00 0.00 0.00 86 1008.1
20260505150520 23 231 1.6 12.9 0.00 0.00 0.00 87 1008.1
20260505140518 22 234 1.6 11.3 0.00 0.00 0.00 89 1008.0
20260505125021 21 0 0.0 12.9 0.00 0.00 0.00 91 1007.9
20260505124550 21 180 1.6 12.9 0.00 0.00 0.00 91 1007.6
20260505124018 21 142 1.6 12.9 0.00 0.00 0.00 91 1007.3
20260505123518 21 182 3.2 12.9 0.00 0.00 0.00 91 1007.1
20260505123049 21 144 4.8 12.9 0.00 0.00 0.00 91 1007.0
20260505122517 21 0 4.8 11.3 0.00 0.00 0.00 91 1007.1
20260505122017 21 194 1.6 9.7 0.00 0.00 0.00 91 1007.3
20260505121604 21 163 0.0 9.7 0.00 0.00 0.00 91 1007.5
20260505121021 21 0 1.6 9.7 0.00 0.00 0.00 91 1007.4
20260505120518 21 0 0.0 9.7 0.00 0.00 0.00 91 1007.4
20260505120035 21 132 1.6 11.3 0.00 0.00 0.00 91 1007.3
20260505115517 21 100 3.2 11.3 0.00 0.00 0.00 91 1007.3
20260505115017 21 173 0.0 6.4 0.00 0.00 0.00 91 1007.2
20260505114534 21 192 0.0 9.7 0.00 0.00 0.00 91 1007.2
20260505114017 21 191 1.6 12.9 0.00 0.00 0.00 91 1007.0
20260505113517 21 181 3.2 12.9 0.00 0.00 0.00 90 1006.9
20260505113036 21 169 3.2 9.7 0.00 0.00 0.00 90 1007.0
20260505112517 21 0 1.6 12.9 0.00 0.00 0.00 90 1007.3
20260505112018 21 209 1.6 12.9 0.00 0.00 0.00 90 1007.3
20260505111539 21 150 1.6 9.7 0.00 0.00 0.00 90 1007.1
20260505111018 21 87 0.0 9.7 0.00 0.00 0.00 90 1007.1
20260505110517 21 128 1.6 12.9 0.00 0.00 0.00 90 1007.0
20260505102015 21 170 1.6 9.7 0.00 0.00 0.00 90 1007.2
20260505101541 21 159 3.2 9.7 0.00 0.00 0.00 90 1007.1
20260505101015 21 133 1.6 9.7 0.00 0.00 0.00 90 1007.2
20260505100518 21 147 1.6 11.3 0.00 0.00 0.00 90 1007.3
20260505100043 21 120 3.2 11.3 0.00 0.00 0.00 90 1007.3
20260505095520 21 160 3.2 9.7 0.00 0.00 0.00 90 1007.3
20260505095019 21 173 1.6 8.0 0.00 0.00 0.00 90 1007.3
20260505094532 21 118 1.6 8.0 0.00 0.00 0.00 90 1007.4
20260505094016 21 173 3.2 8.0 0.00 0.00 0.00 90 1007.2
20260505093518 21 202 3.2 8.0 0.00 0.00 0.00 90 1007.1
20260505093034 21 183 3.2 8.0 0.00 0.00 0.00 89 1007.3
20260505092515 21 163 0.0 8.0 0.00 0.00 0.00 89 1007.3
20260505092018 21 159 3.2 8.0 0.00 0.00 0.00 89 1007.4
20260505091537 21 0 1.6 8.0 0.00 0.00 0.00 89 1007.6
20260505091021 21 173 0.0 6.4 0.00 0.00 0.00 89 1007.6
20260505090515 21 0 0.0 8.0 0.00 0.00 0.00 89 1007.7
20260505090032 21 121 0.0 8.0 0.00 0.00 0.00 89 1007.6
20260505085517 21 152 1.6 8.0 0.00 0.00 0.00 88 1007.7
20260505085017 21 0 1.6 6.4 0.00 0.00 0.00 89 1007.7
20260505084536 21 157 1.6 6.4 0.00 0.00 0.00 88 1007.6
20260505084018 21 166 1.6 11.3 0.00 0.00 0.00 88 1007.8
20260505083519 21 0 0.0 11.3 0.00 0.00 0.00 88 1007.6
20260505083046 21 162 3.2 12.9 0.00 0.00 0.00 88 1007.7
20260505082517 21 92 3.2 12.9 0.00 0.00 0.00 88 1007.7
20260505082018 21 175 0.0 9.7 0.00 0.00 0.00 88 1007.8
20260505081540 21 167 3.2 9.7 0.00 0.00 0.00 88 1007.9
20260505081018 21 196 1.6 11.3 0.00 0.00 0.00 88 1007.8
20260505080515 21 118 1.6 11.3 0.00 0.00 0.00 87 1007.8
20260505080045 21 0 1.6 11.3 0.00 0.00 0.00 87 1008.0
20260505075515 21 0 1.6 9.7 0.00 0.00 0.00 87 1008.1
20260505075016 21 0 0.0 9.7 0.00 0.00 0.00 87 1008.1
20260505074534 21 190 0.0 8.0 0.00 0.00 0.00 87 1008.1
20260505074022 21 163 1.6 6.4 0.00 0.00 0.00 87 1008.0
20260505073617 21 165 1.6 8.0 0.00 0.00 0.00 87 1008.0
20260505073038 21 117 1.6 8.0 0.00 0.00 0.00 87 1008.1
20260505072518 21 191 1.6 8.0 0.00 0.00 0.00 87 1008.1
20260505072017 21 203 1.6 9.7 0.00 0.00 0.00 87 1008.2
20260505071541 21 188 1.6 9.7 0.00 0.00 0.00 87 1008.4
20260505071022 21 203 1.6 8.0 0.00 0.00 0.00 86 1008.5
20260505070518 21 0 0.0 8.0 0.00 0.00 0.00 86 1008.4
20260505070037 21 173 0.0 8.0 0.00 0.00 0.00 86 1008.4
20260505065517 21 100 3.2 14.5 0.00 0.00 0.00 86 1008.4
20260505065020 21 182 0.0 14.5 0.00 0.00 0.00 86 1008.5
20260505064534 21 146 1.6 6.4 0.00 0.00 0.00 86 1008.6
20260505064019 21 132 1.6 6.4 0.00 0.00 0.00 86 1008.6
20260505063515 21 0 1.6 8.0 0.00 0.00 0.00 86 1008.5
20260505063044 21 140 3.2 9.7 0.00 0.00 0.00 85 1008.6
20260505062519 21 175 3.2 9.7 0.00 0.00 0.00 85 1008.7
20260505062021 21 214 1.6 6.4 0.00 0.00 0.00 85 1008.9
20260505061539 21 166 1.6 6.4 0.00 0.00 0.00 85 1009.0
20260505061022 21 115 1.6 6.4 0.00 0.00 0.00 85 1008.9
20260505060518 21 202 1.6 8.0 0.00 0.00 0.00 85 1009.0
20260505060035 21 177 1.6 8.0 0.00 0.00 0.00 84 1009.0
20260505055515 21 147 1.6 8.0 0.00 0.00 0.00 84 1008.9
20260505055016 21 171 1.6 9.7 0.00 0.00 0.00 84 1008.8
20260505054549 21 180 3.2 9.7 0.00 0.00 0.00 84 1008.9
20260505054018 21 161 3.2 9.7 0.00 0.00 0.00 84 1008.9
20260505053519 21 146 3.2 11.3 0.00 0.00 0.00 83 1009.0
20260505053041 21 176 3.2 11.3 0.00 0.00 0.00 83 1009.0
20260505052515 21 165 3.2 11.3 0.00 0.00 0.00 83 1009.1
20260505052015 21 190 1.6 11.3 0.00 0.00 0.00 83 1009.1
20260505051540 21 184 3.2 11.3 0.00 0.00 0.00 82 1009.2
20260505051019 21 186 1.6 11.3 0.00 0.00 0.00 82 1009.2
20260505050525 21 173 3.2 9.7 0.00 0.00 0.00 82 1009.3
20260505041545 22 178 4.8 17.7 0.00 0.00 0.00 80 1009.2
20260505041017 22 221 3.2 17.7 0.00 0.00 0.00 80 1009.2
20260505040516 22 168 6.4 17.7 0.00 0.00 0.00 80 1009.1
20260505040041 22 161 6.4 17.7 0.00 0.00 0.00 80 1009.2
20260505035519 22 196 4.8 17.7 0.00 0.00 0.00 80 1009.3
20260505035017 22 209 1.6 9.7 0.00 0.00 0.00 80 1009.4
20260505034538 22 188 1.6 11.3 0.00 0.00 0.00 79 1009.5
20260505034018 22 172 3.2 16.1 0.00 0.00 0.00 79 1009.4
20260505033518 22 120 4.8 20.9 0.00 0.00 0.00 79 1009.3
20260505033036 22 182 4.8 20.9 0.00 0.00 0.00 78 1009.3
20260505032522 22 88 4.8 20.9 0.00 0.00 0.00 78 1009.5
20260505032014 22 171 3.2 12.9 0.00 0.00 0.00 78 1009.5
20260505031540 22 0 1.6 11.3 0.00 0.00 0.00 78 1009.5
20260505031018 22 192 3.2 14.5 0.00 0.00 0.00 77 1009.5
20260505030516 22 142 3.2 14.5 0.00 0.00 0.00 77 1009.4
20260505030051 22 192 3.2 16.1 0.00 0.00 0.00 77 1009.5
20260505025516 22 189 3.2 16.1 0.00 0.00 0.00 77 1009.5
20260505025016 23 170 4.8 17.7 0.00 0.00 0.00 77 1009.4
20260505024531 23 184 4.8 17.7 0.00 0.00 0.00 76 1009.3
20260505024018 23 140 1.6 11.3 0.00 0.00 0.00 77 1009.3
20260505023515 23 196 4.8 16.1 0.00 0.00 0.00 76 1009.1
20260505023037 23 187 4.8 16.1 0.00 0.00 0.00 77 1009.2
20260505022516 23 175 3.2 9.7 0.00 0.00 0.00 77 1009.2
20260505022018 23 0 1.6 12.9 0.00 0.00 0.00 77 1009.2
20260505021549 23 200 3.2 12.9 0.00 0.00 0.00 77 1009.3
20260505021018 22 167 4.8 11.3 0.00 0.00 0.00 77 1009.3
20260505020518 22 182 3.2 11.3 0.00 0.00 0.00 77 1009.3
20260505020049 22 157 1.6 11.3 0.00 0.00 0.00 77 1009.2
20260505015516 22 182 1.6 8.0 0.00 0.00 0.00 77 1009.1
20260505015016 22 0 0.0 4.8 0.00 0.00 0.00 77 1009.2
20260505014536 22 0 1.6 8.0 0.00 0.00 0.00 77 1009.1
20260505014019 23 0 0.0 8.0 0.00 0.00 0.00 76 1009.1
20260505013515 23 0 0.0 8.0 0.00 0.00 0.00 76 1009.1
20260505013032 23 146 1.6 8.0 0.00 0.00 0.00 76 1008.8
20260505012515 23 209 1.6 4.8 0.00 0.00 0.00 75 1008.8
20260505012022 23 178 1.6 8.0 0.00 0.00 0.00 75 1008.8
20260505011538 23 183 1.6 8.0 0.00 0.00 0.00 75 1008.8
20260505011017 23 167 1.6 12.9 0.00 0.00 0.00 74 1008.8
20260505010515 23 134 0.0 12.9 0.00 0.00 0.00 74 1009.0
20260505010045 24 211 4.8 12.9 0.00 0.00 0.00 73 1008.8
20260505005515 24 181 3.2 14.5 0.00 0.00 0.00 73 1008.8
20260505005021 24 168 3.2 14.5 0.00 0.00 0.00 73 1008.8
20260505004537 24 180 4.8 14.5 0.00 0.00 0.00 73 1008.9
20260505004014 24 159 3.2 14.5 0.00 0.00 0.00 73 1009.0
20260505003515 24 143 1.6 12.9 0.00 0.00 0.00 73 1008.9
20260505003045 24 171 3.2 12.9 0.00 0.00 0.00 72 1008.8
20260505002519 24 142 3.2 11.3 0.00 0.00 0.00 72 1008.8
20260505002017 25 135 1.6 11.3 0.00 0.00 0.00 72 1008.9
20260505001535 25 286 1.6 11.3 0.00 0.00 0.00 72 1009.0
20260505001018 25 199 4.8 14.5 0.00 0.00 0.00 72 1008.9
20260505000515 25 192 4.8 14.5 0.00 0.00 0.00 71 1008.9
20260505000039 25 197 3.2 17.7 0.00 0.00 0.00 71 1008.9
20260504235517 25 205 1.6 17.7 0.00 0.00 0.00 71 1009.0
20260504235017 25 88 4.8 17.7 0.00 0.00 0.00 70 1009.0
20260504234539 25 0 1.6 8.0 0.00 0.00 0.00 70 1008.9
20260504234016 25 191 3.2 12.9 0.00 0.00 0.00 70 1009.0
20260504233516 25 230 3.2 12.9 0.00 0.00 0.00 70 1009.1
20260504233045 25 254 3.2 12.9 0.00 0.00 0.00 69 1009.0
20260504232518 25 82 3.2 14.5 0.00 0.00 0.00 69 1009.0
20260504232015 26 178 4.8 14.5 0.00 0.00 0.00 68 1009.0
20260504231537 26 234 3.2 11.3 0.00 0.00 0.00 68 1009.1
20260504231016 26 151 3.2 16.1 0.00 0.00 0.00 68 1009.2
20260504230516 26 192 6.4 16.1 0.00 0.00 0.00 67 1009.3
20260504230043 26 164 3.2 14.5 0.00 0.00 0.00 68 1009.3
20260504225517 26 217 1.6 11.3 0.00 0.00 0.00 68 1009.3
20260504225017 26 197 1.6 11.3 0.00 0.00 0.00 68 1009.3
20260504224536 26 154 3.2 11.3 0.00 0.00 0.00 67 1009.3
20260504224017 26 117 1.6 8.0 0.00 0.00 0.00 68 1009.3
20260504223517 26 159 1.6 9.7 0.00 0.00 0.00 67 1009.4
20260504223034 26 204 0.0 14.5 0.00 0.00 0.00 68 1009.6
20260504222517 26 224 4.8 14.5 0.00 0.00 0.00 66 1009.6
20260504222018 26 161 4.8 17.7 0.00 0.00 0.00 66 1009.5
20260504221538 26 168 4.8 17.7 0.00 0.00 0.00 66 1009.6
20260504221017 26 128 6.4 17.7 0.00 0.00 0.00 66 1009.6
20260504220516 26 205 3.2 11.3 0.00 0.00 0.00 65 1009.8
20260504220038 26 180 1.6 11.3 0.00 0.00 0.00 66 1009.9
20260504215520 26 178 1.6 11.3 0.00 0.00 0.00 65 1009.8
20260504215016 27 143 3.2 14.5 0.00 0.00 0.00 64 1009.8
20260504214542 27 146 3.2 14.5 0.00 0.00 0.00 63 1009.9
20260504214019 27 193 3.2 14.5 0.00 0.00 0.00 65 1010.0
20260504213518 27 250 1.6 9.7 0.00 0.00 0.00 63 1010.2
20260504213041 27 223 3.2 9.7 0.00 0.00 0.00 63 1010.2
20260504212516 27 218 1.6 14.5 0.00 0.00 0.00 64 1010.2
20260504212019 27 239 1.6 14.5 0.00 0.00 0.00 63 1010.3
20260504211534 27 91 1.6 9.7 0.00 0.00 0.00 63 1010.4
20260504211019 27 192 3.2 9.7 0.00 0.00 0.00 64 1010.6
20260504210522 27 0 0.0 11.3 0.00 0.00 0.00 66 1010.6
20260504210050 27 188 1.6 11.3 0.00 0.00 0.00 64 1010.7
20260504205518 27 163 3.2 12.9 0.00 0.00 0.00 63 1010.7
20260504205019 27 190 1.6 19.3 0.00 0.00 0.00 63 1010.7
20260504204543 27 216 6.4 19.3 0.00 0.00 0.00 62 1010.7
20260504204019 27 185 1.6 11.3 0.00 0.00 0.00 65 1011.0
20260504203516 26 244 1.6 11.3 0.00 0.00 0.00 65 1011.1
20260504203039 26 92 1.6 12.9 0.00 0.00 0.00 65 1011.3
20260504202519 26 223 3.2 14.5 0.00 0.00 0.00 66 1011.2
20260504202018 26 194 3.2 14.5 0.00 0.00 0.00 65 1011.4
20260504201536 26 216 4.8 14.5 0.00 0.00 0.00 65 1011.6
20260504201018 26 203 1.6 6.4 0.00 0.00 0.00 66 1011.6
20260504200518 26 224 1.6 11.3 0.00 0.00 0.00 66 1011.7
20260504200050 26 229 1.6 14.5 0.00 0.00 0.00 65 1011.7
20260504195515 26 212 3.2 17.7 0.00 0.00 0.00 65 1011.8
20260504195019 26 196 8.0 17.7 0.00 0.00 0.00 63 1011.9
20260504194538 26 179 4.8 12.9 0.00 0.00 0.00 64 1012.1
20260504194018 26 153 3.2 11.3 0.00 0.00 0.00 63 1012.1
20260504193521 26 134 3.2 14.5 0.00 0.00 0.00 62 1012.1
20260504193039 26 96 1.6 14.5 0.00 0.00 0.00 63 1012.2
20260504192518 26 135 6.4 14.5 0.00 0.00 0.00 61 1012.3
20260504192019 26 200 3.2 14.5 0.00 0.00 0.00 63 1012.3
20260504191537 26 129 6.4 14.5 0.00 0.00 0.00 63 1012.3
20260504191020 26 195 4.8 14.5 0.00 0.00 0.00 64 1012.2
20260504190522 26 116 3.2 12.9 0.00 0.00 0.00 63 1012.4
20260504190032 26 201 3.2 14.5 0.00 0.00 0.00 67 1012.7
20260504185518 26 217 4.8 14.5 0.00 0.00 0.00 65 1012.8
20260504185022 26 76 3.2 16.1 0.00 0.00 0.00 64 1012.8
20260504184539 26 245 3.2 16.1 0.00 0.00 0.00 66 1012.8
20260504184018 25 81 3.2 14.5 0.00 0.00 0.00 64 1012.8
20260504183520 25 113 3.2 16.1 0.00 0.00 0.00 66 1012.9
20260504183038 25 160 3.2 17.7 0.00 0.00 0.00 65 1012.9
20260504182516 25 209 4.8 19.3 0.00 0.00 0.00 65 1012.9
20260504182021 26 180 8.0 19.3 0.00 0.00 0.00 63 1013.0
20260504181538 26 229 4.8 16.1 0.00 0.00 0.00 64 1013.0
20260504181017 26 242 4.8 16.1 0.00 0.00 0.00 63 1013.1
20260504180516 26 145 6.4 17.7 0.00 0.00 0.00 65 1013.1
20260504180037 25 138 1.6 19.3 0.00 0.00 0.00 66 1013.1
20260504175518 26 227 4.8 19.3 0.00 0.00 0.00 65 1013.2
20260504175016 25 234 3.2 11.3 0.00 0.00 0.00 65 1013.2
20260504174535 25 171 3.2 17.7 0.00 0.00 0.00 63 1013.2
20260504174021 25 168 6.4 17.7 0.00 0.00 0.00 63 1013.3
20260504173517 25 163 1.6 9.7 0.00 0.00 0.00 65 1013.4
20260504173034 25 234 3.2 11.3 0.00 0.00 0.00 66 1013.5
20260504172519 25 214 4.8 14.5 0.00 0.00 0.00 67 1013.4
20260504172017 25 157 4.8 14.5 0.00 0.00 0.00 65 1013.6